Location: Unspecified
(48.2082°N, 0.0000°E)
Time: 07:29:01
(UTC+00:00)

Vanguard 1 - Pass Details

Date: 03 July 2019
Orbit: 653 x 3830 km, 34.3° (Epoch: 22 July)

Event Time Altitude Azimuth Distance (km) Brightness Sun altitude
Rises 21:59:20 0° 210° (SSW) 7,447 14.3 -13.6°
Reaches altitude 10° 22:04:53 10° 202° (SSW) 6,686 13.9 -14.0°
Maximum altitude 22:23:52 35° 148° (SSE) 5,070 13.1 -15.4°
Drops below altitude 10° 22:40:48 10° 93° (E) 6,046 13.8 -16.4°
Sets 22:45:24 0° 85° (E) 6,695 14.2 -16.7°
